Вернуться в каталог

FENGYUN 1C DEB

АктивенSSO
NORAD 31524·DEBRIS·🇨🇳 China

Запущен May 10, 1999 с Taiyuan Satellite Launch Center

Loading…

Ближайшие Пролёты (ближайшие 24 часа)

TLE

УстаревающийSource: Space-Track

Эпоха: Sep 5, 2026, 12:54 UTC

1 31524U 99025BXP 26248.53752581  .00000281  00000-0  13687-3 0  9997
2 31524  99.2475 141.3013 0277765 101.5145  18.5831 14.07616001669044

Отслеживайте FENGYUN 1C DEB в реальном времени с AllMySat

Download on the App Store